Regional Weather Roundup
Issued by NWS

Home | Current Version | Previous Version | Text Only | Print | Product List | Glossary On
Versions: 1 2 3 4 5 6 7 8 9 10 11 12 13 14 15 16 17 18 19 20 21 22 23 24 25 26 27 28 29 30 31 32 33 34 35 36 37 38 39 40 41 42 43 44 45 46 47 48 49 50
000
ASUS43 KDTX 201310
RWRMI
MICHIGAN HOURLY REGIONAL WEATHER ROUNDUP
NATIONAL WEATHER SERVICE DETROIT/PONTIAC MI
800 AM EST THU NOV 20 2014

NOTE: "FAIR" INDICATES FEW OR NO CLOUDS BELOW 12,000 FEET WITH NO
SIGNIFICANT WEATHER AND/OR OBSTRUCTION TO VISIBILITY.

MIZ047>049-052>055-059>063-066>070-074>076-081>083-201400-
SOUTHEAST LOWER MICHIGAN

CITY           SKY/WX    TMP DP  RH WIND       PRES   REMARKS
ADRIAN         MOCLDY    21  13  71 W9        29.94R WCI  11
ALMA           MOCLDY    18  16  92 SW7       29.85R WCI   9
ANN ARBOR      CLOUDY    21  13  71 SW10      29.91R WCI  10
BAD AXE        MOCLDY    19  14  81 SW12G18   29.80R WCI   7
CARO           MOCLDY    19  14  79 SW12      29.82S WCI   7
DETROIT CITY   CLOUDY    24  15  68 SW17G23   29.91R WCI  11
DETROIT        MOCLDY    23  14  68 SW15G24   29.93R WCI  10
FLINT          LGT SNOW  23  18  81 SW10      29.86S WCI  12
GROSSE ILE     MOCLDY    23  12  63 SW13G23   29.93R WCI  11
HILLSDALE      MOCLDY    21  15  78 SW10G16   29.90R WCI   9
HOWELL         FLURRIES  20  16  87 SW7       29.86S WCI  11

CITY           SKY/WX    TMP DP  RH WIND       PRES   REMARKS
JACKSON        LGT SNOW  20  16  84 SW10      29.89R FOG     WCI   9
LAMBERTVILLE   MOCLDY    25  14  63 SW10G22   29.96R WCI  15
LANSING        LGT SNOW  21  16  81 SW14      29.88R WCI   8
LAPEER         LGT SNOW  21  18  89 W9        29.85S WCI  11
MASON          CLEAR     20  16  87 SW8       29.87S WCI  10
MONROE         PTCLDY    21  14  73 SW14G22   29.93R WCI   8
MT. CLEMENS    LGT SNOW  22  20  92 SW13      29.86S WCI  10
PONTIAC        LGT SNOW  22  16  78 SW12G18   29.85S WCI  10
PORT HOPE        N/A     22  11  62 W13G20    29.76R WCI  10
PORT HURON     CLOUDY    21  16  79 SW3       29.87S
TRI CITIES     PTCLDY    18  13  80 SW12      29.84R WCI   5
TROY           LGT SNOW  24  19  79 SW12G17   29.90S WCI  13
SAGINAW HB     PTCLDY    19  18  93 SW8       29.84R WCI   9
$$
MIZ043>046-050>051-056>058-064>065-071>073-077>080-201400-
SOUTHWEST LOWER MICHIGAN

CITY           SKY/WX    TMP DP  RH WIND       PRES   REMARKS
BATTLE CREEK   FLURRIES  24  17  74 W15       29.90R WCI  11
BENTON HARBOR  CLOUDY    24  13  62 W18G28    29.97R WCI  10
BIG RAPIDS     FLURRIES  19  12  72 W14G21    29.81R WCI   6
COLDWATER      CLOUDY    22  16  77 SW14G21   29.93R WCI   9
FREMONT        FLURRIES  20  15  78 W8        29.86R WCI  11
HOLLAND        LGT SNOW  26  13  57 W15G29    29.91R WCI  14
GRAND RAPIDS   LGT SNOW  22  18  85 W15       29.88R FOG     WCI   9
IONIA          SNOW      23  21  92 W9G21     29.85S VSB 1/4 WCI  13
KALAMAZOO      FLURRIES  24  15  68 W10       29.91S WCI  14
LUDINGTON      CLOUDY    21   8  58 NW16G25   29.86S WCI   7
MARSHALL       CLOUDY    19  18  93 SW12      29.89R VSB 1   WCI   7
MOUNT PLEASANT PTCLDY    19  15  84 W10       29.82R WCI   8
MUSKEGON       LGT SNOW  24  13  62 W13G33    29.88S BLWGSNOWWCI  12
SOUTH HAVEN    CLOUDY    26  14  60 W16G28    29.94R WCI  14
$$
MIZ016>042-201400-
NORTHERN LOWER MICHIGAN

CITY           SKY/WX    TMP DP  RH WIND       PRES   REMARKS
ALPENA         MOCLDY    18  13  80 W7        29.70R WCI   9
BEAVER ISLAND  CLOUDY    21  11  66 W16G25    29.72R WCI   7
BELLAIRE       CLOUDY    22  15  77 W5        29.75R WCI  15
CADILLAC       LGT SNOW  15  12  87 W7        29.74S WCI   6
CHARLEVOIX     MOCLDY    22   7  53 W26       29.74R HAZE    WCI   5
FRANKFORT      CLOUDY    20  11  66 NW17G25   29.81R WCI   6
GAYLORD        SNOW      17  13  84 W10G20    29.68R VSB 1/2 WCI   5
GRAYLING       PTCLDY    16  12  87 W9        29.72S WCI   4
HARBOR SPRINGS MOCLDY    21   6  52 W17G26    29.71R WCI   6
HOUGHTON LAKE  CLEAR     17  11  77 W14       29.74S WCI   3
MANISTEE       CLOUDY    19   7  58 NW23G29   29.83R WCI   2
OSCODA         CLEAR     17  13  84 SW14      29.75R WCI   2
PELLSTON       PTCLDY    20   7  57 W13       29.70R WCI   7
ROGERS CITY    PTCLDY    15  11  85 MISG      29.69R
TRAVERSE CITY  LGT SNOW  19  12  74 W13       29.77R WCI   6
$$
MIZ007>008-015-201400-
EASTERN UPPER MICHIGAN

CITY           SKY/WX    TMP DP  RH WIND       PRES   REMARKS
KINROSS        PTCLDY    14  12  92 W12       29.62R WCI   0
MACKINAC ISLAN PTCLDY    20  15  80 W18G31    29.66R WCI   5
NEWBERRY       PTCLDY    13  10  89 W15       29.65R WCI  -3
S. S. MARIE    LGT SNOW  20  15  81 W20G31    29.56F VSB 3/4 WCI   4
MUNISING         N/A     16  10  77 W9        29.73R WCI   4
$$
MIZ004>006-011>014-085-201400-
CENTRAL UPPER MICHIGAN

CITY           SKY/WX    TMP DP  RH WIND       PRES   REMARKS
MANISTIQUE     CLEAR     12   7  81 W13       29.73R WCI  -3
ESCANABA       CLOUDY    10   1  67 W10       29.78R WCI  -3
MENOMINEE      PTCLDY    10   3  72 W7        29.83R WCI   0
SAWYER-GWINN   LGT SNOW   7   3  85 W5        29.72R WCI  -2
$$
MIZ001>003-009>011-084-201400-
WESTERN UPPER MICHIGAN

CITY           SKY/WX    TMP DP  RH WIND       PRES   REMARKS
IRON MOUNTAIN  PTCLDY     9  -1  64 W8        29.77R WCI  -3
HOUGHTON       LGT SNOW  13   6  74 NW14      29.74R VSB 1   WCI  -2
COPPER HARBOR    N/A     19  10  68 N26G35    29.75R WCI   1
IRONWOOD       CLOUDY     9   9 100 W15       29.80R VSB 1/2 WCI  -8
$$

ABBREVIATIONS USED IN REMARKS
   TC - TEMPERATURE IN CELSIUS
  WCI - WIND CHILL INDEX
   HX - HEAT INDEX
  VSB - VISIBILITY




USA.gov is the U.S. government's official web portal to all federal, state and local government web resources and services.